Jefferson, AL

10:56 AM CST on February 06, 2016 (GMT -0600)
Demopolis Municipal Airport

Weather History for KDYA - December, 2013

Change the Weather History Date:

Wednesday, December 18, 2013

  Actual Average (KMEI) Record (KMEI)
Temperature  
Mean Temperature 44 °F 47 °F  
Max Temperature 60 °F 58 °F 79 °F (1984)
Min Temperature 29 °F 35 °F 12 °F (1901)
Degree Days  
Heating Degree Days 20 19  
Month to date heating degree days 304  
Since 1 July heating degree days 754  
Cooling Degree Days 0 0  
Month to date cooling degree days 0  
Year to date cooling degree days 2029  
Moisture  
Dew Point 34 °F    
Average Humidity 64    
Maximum Humidity 100    
Minimum Humidity 31    
Precipitation  
Precipitation 0.00 in 0.16 in 1.65 in (2009)
Month to date precipitation 3.12  
Year to date precipitation 54.22  
Sea Level Pressure  
Sea Level Pressure 30.32 in    
Wind  
Wind Speed 0 mph (North)    
Max Wind Speed 0 mph    
Max Gust Speed -    
Visibility 9 miles    
Events      
T = Trace of Precipitation, MM = Missing Value Source: NWS Daily Summary

Daily Weather History Graph

Daily Weather History Graph

Search for Another Location

Airport or City:

Trip Planner

Search our weather history database for the weather conditions in past years. The results will help you decide how hot, cold, wet, or windy it might be!

Date:

Astronomy

Dec. 18, 2013 Rise Set
Actual Time 6:47 AM CST 4:49 PM CST
Civil Twilight 6:20 AM CST 5:16 PM CST
Nautical Twilight 5:50 AM CST 5:47 PM CST
Astronomical Twilight 5:20 AM CST 6:17 PM CST
Moon 6:16 PM CST (12/18) 7:31 AM CST (12/18)
Length of Visible Light 10h 55m
Length of Day
10h 01m
Full, 98% of the Moon is Illuminated
Dec 18
Full
Dec 25
Last Quarter
Jan 1
New
Jan 7
First Quarter
Jan 15
Full

Hourly Weather History & Observations

Time (CST) Temp. Dew Point Humidity Pressure Visibility Wind Dir Wind Speed Gust Speed Precip Events Conditions
12:15 AM 34.5 °F - N/A% 30.30 in 10.0 mi Calm Calm - N/A   Clear
12:35 AM 33.8 °F - N/A% 30.30 in 10.0 mi Calm Calm - N/A   Clear
12:55 AM 33.3 °F - N/A% 30.30 in 10.0 mi Calm Calm - N/A   Clear
1:15 AM 33.1 °F - N/A% 30.30 in 7.0 mi Calm Calm - N/A   Clear
1:35 AM 32.4 °F - N/A% 30.30 in 10.0 mi Calm Calm - N/A   Clear
1:55 AM 32.4 °F - N/A% 30.31 in 7.0 mi Calm Calm - N/A   Clear
2:15 AM 33.6 °F - N/A% 30.31 in 7.0 mi Calm Calm - N/A   Clear
2:35 AM 32.2 °F - N/A% 30.31 in 7.0 mi Calm Calm - N/A   Clear
2:55 AM 32.2 °F - N/A% 30.31 in 10.0 mi Calm Calm - N/A   Clear
3:15 AM 32.9 °F - N/A% 30.31 in 5.0 mi Calm Calm - N/A   Haze
3:35 AM 32.0 °F - N/A% 30.32 in 3.0 mi Calm Calm - N/A   Clear
3:55 AM 32.0 °F - N/A% 30.31 in 4.0 mi Calm Calm - N/A   Haze
4:15 AM 31.8 °F - N/A% 30.32 in 7.0 mi Calm Calm - N/A   Clear
4:35 AM 31.1 °F - N/A% 30.32 in 7.0 mi Calm Calm - N/A   Clear
4:55 AM 31.5 °F - N/A% 30.33 in 10.0 mi Calm Calm - N/A   Clear
5:15 AM 30.4 °F - N/A% 30.33 in 7.0 mi Calm Calm - N/A   Clear
5:35 AM 30.2 °F - N/A% 30.33 in 10.0 mi Calm Calm - N/A   Clear
5:55 AM 30.2 °F - N/A% 30.34 in 7.0 mi Calm Calm - N/A   Clear
6:15 AM 29.7 °F - N/A% 30.35 in 10.0 mi Calm Calm - N/A   Clear
6:35 AM 29.7 °F - N/A% 30.35 in 10.0 mi Calm Calm - N/A   Clear
6:55 AM 29.3 °F - N/A% 30.36 in 10.0 mi Calm Calm - N/A   Clear
7:15 AM 30.0 °F - N/A% 30.36 in 10.0 mi Calm Calm - N/A   Clear
7:35 AM 31.5 °F - N/A% 30.37 in 10.0 mi Calm Calm - N/A   Clear
7:55 AM 33.1 °F - N/A% 30.37 in 10.0 mi Calm Calm - N/A   Clear
8:15 AM 37.2 °F - N/A% 30.38 in 10.0 mi Calm Calm - N/A   Clear
8:35 AM 40.8 °F 40.8 °F 100% 30.39 in 10.0 mi Calm Calm - N/A   Clear
8:55 AM 43.7 °F 41.4 °F 91% 30.40 in 10.0 mi Calm Calm - N/A   Clear
9:15 AM 46.6 °F 37.6 °F 71% 30.40 in 10.0 mi Calm Calm - N/A   Clear
9:35 AM 48.9 °F 36.5 °F 62% 30.41 in 10.0 mi Calm Calm - N/A   Clear
9:55 AM 50.4 °F 32.5 °F 50% 30.41 in 10.0 mi Calm Calm - N/A   Clear
10:15 AM 50.9 °F 31.6 °F 48% 30.40 in 10.0 mi Calm Calm - N/A   Clear
10:35 AM 52.9 °F 30.4 °F 42% 30.40 in 10.0 mi Calm Calm - N/A   Clear
10:55 AM 54.1 °F 29.7 °F 39% 30.39 in 10.0 mi Calm Calm - N/A   Clear
11:15 AM 54.5 °F 29.8 °F 39% 30.38 in 10.0 mi Calm Calm - N/A   Clear
11:35 AM 55.9 °F 30.0 °F 37% 30.37 in 10.0 mi Calm Calm - N/A   Clear
11:55 AM 56.5 °F 30.4 °F 37% 30.36 in 10.0 mi Calm Calm - N/A   Clear
12:15 PM 56.7 °F 29.3 °F 35% 30.35 in 10.0 mi Calm Calm - N/A   Clear
12:35 PM 58.1 °F 29.5 °F 34% 30.34 in 10.0 mi Calm Calm - N/A   Clear
12:55 PM 58.8 °F 30.2 °F 34% 30.33 in 10.0 mi Calm Calm - N/A   Clear
1:15 PM 58.8 °F 30.2 °F 34% 30.32 in 10.0 mi Calm Calm - N/A   Clear
1:35 PM 59.2 °F 30.0 °F 33% 30.31 in 10.0 mi Calm Calm - N/A   Clear
1:55 PM 59.7 °F 29.5 °F 32% 30.31 in 10.0 mi Calm Calm - N/A   Clear
2:15 PM 59.9 °F 29.3 °F 31% 30.30 in 10.0 mi Calm Calm - N/A   Clear
2:35 PM 60.3 °F 30.2 °F 32% 30.30 in 10.0 mi Calm Calm - N/A   Clear
2:55 PM 60.8 °F 30.4 °F 32% 30.30 in 10.0 mi Calm Calm - N/A   Clear
3:15 PM 60.3 °F 30.0 °F 32% 30.29 in 10.0 mi Calm Calm - N/A   Clear
3:35 PM 59.9 °F 30.0 °F 32% 30.29 in 10.0 mi Calm Calm - N/A   Clear
3:55 PM 59.9 °F 31.1 °F 34% 30.29 in 10.0 mi Calm Calm - N/A   Clear
4:15 PM 58.5 °F 32.0 °F 37% 30.28 in 10.0 mi Calm Calm - N/A   Clear
4:35 PM 56.1 °F 32.9 °F 41% 30.28 in 10.0 mi Calm Calm - N/A   Clear
4:55 PM 47.8 °F 37.6 °F 68% 30.28 in 10.0 mi Calm Calm - N/A   Clear
5:15 PM 45.5 °F 37.8 °F 74% 30.28 in 10.0 mi Calm Calm - N/A   Clear
5:35 PM 43.5 °F 36.9 °F 77% 30.28 in 10.0 mi Calm Calm - N/A   Clear
5:55 PM 41.5 °F 36.3 °F 82% 30.28 in 10.0 mi Calm Calm - N/A   Clear
6:15 PM 41.5 °F 36.0 °F 81% 30.28 in 10.0 mi Calm Calm - N/A   Clear
6:35 PM 39.2 °F 35.8 °F 88% 30.28 in 10.0 mi Calm Calm - N/A   Clear
6:55 PM 39.2 °F 39.2 °F 100% 30.28 in 10.0 mi Calm Calm - N/A   Clear
7:15 PM 40.1 °F 38.1 °F 93% 30.28 in 10.0 mi Calm Calm - N/A   Clear
7:35 PM 38.5 °F 37.8 °F 97% 30.28 in 10.0 mi Calm Calm - N/A   Clear
7:55 PM 36.0 °F 36.0 °F 100% 30.28 in 10.0 mi Calm Calm - N/A   Clear
8:15 PM 36.5 °F 36.5 °F 100% 30.28 in 10.0 mi Calm Calm - N/A   Clear
8:35 PM 36.5 °F 36.5 °F 100% 30.28 in 10.0 mi Calm Calm - N/A   Clear
8:55 PM 35.1 °F 35.1 °F 100% 30.27 in 10.0 mi Calm Calm - N/A   Clear
9:15 PM 34.9 °F 34.9 °F 100% 30.28 in 10.0 mi Calm Calm - N/A   Clear
9:35 PM 33.8 °F 33.8 °F 100% 30.28 in 10.0 mi Calm Calm - N/A   Clear
9:55 PM 34.7 °F 34.7 °F 100% 30.28 in 10.0 mi Calm Calm - N/A   Clear
10:15 PM 33.8 °F 33.8 °F 100% 30.28 in 10.0 mi Calm Calm - N/A   Clear
10:35 PM 33.1 °F 33.1 °F 100% 30.28 in 10.0 mi Calm Calm - N/A   Clear
10:55 PM 32.5 °F - N/A% 30.27 in 10.0 mi Calm Calm - N/A   Clear
11:15 PM 32.0 °F - N/A% 30.26 in 10.0 mi Calm Calm - N/A   Clear
11:35 PM 32.2 °F - N/A% 30.26 in 10.0 mi Calm Calm - N/A   Clear
11:55 PM 32.4 °F - N/A% 30.25 in 10.0 mi Calm Calm - N/A   Clear